Tracking 31027 objects as of 19-Jul-2025
HD Live streaming from Space Station
objects crossing your sky now

INTELSAT 903

Track INTELSAT 903 now!
INTELSAT 903 is classified as:


NORAD ID: 27403
Int'l Code: 2002-016A
Perigee: 36,129.7 km
Apogee: 36,165.6 km
Inclination: 6.9 °
Period: 1,454.2 minutes
Semi major axis: 42518 km
RCS: 28.8022 m2 (large)
Launch date: March 30, 2002
Source: International Telecommunications Satellite Organization (ITSO)
Launch site: TYURATAM MISSILE AND SPACE COMPLEX (TTMTR)

76 C-band, 22 Ku-band, broadcasting, business services, direct-to-home TV broadcasting, telecommunications, VSAT networks; Atlantic Ocean region.
Your satellite tracking list
Your tracking list is empty




NASA's NSSDC Master Catalog

Two Line Element Set (TLE):
1 27403U 02016A   25199.34195714 -.00000185  00000-0  00000-0 0  9990
2 27403   6.8725  70.4496 0004218 117.3290 228.2877  0.99022544 42089
Source of the keplerian elements: AFSPC